Location: Unspecified
(0.0000°N, 0.0000°E)
Time: 00:08:53
(UTC+00:00)

Vanguard 2 - Visible Passes

Search period start: 08 December 2016 00:00
Search period end: 18 December 2016 00:00
Orbit: 553 x 2940 km, 32.9° (Epoch: 07 December)

Date Brightness Start Highest point End Pass type
(mag) Time Alt. Az. Time Alt. Az. Time Alt. Az.
08 Dec 11.6 03:55:06 10° SSE 03:57:25 11° SSE 03:59:53 10° SE visible
08 Dec 8.6 19:26:27 10° NNW 19:29:13 24° N 19:29:13 24° N visible
09 Dec 11.5 04:10:48 10° S 04:16:42 15° SSE 04:23:47 10° ESE visible
09 Dec 8.3 19:44:21 10° NW 19:47:21 33° NW 19:47:21 33° NW visible
10 Dec 11.4 04:27:45 10° S 04:35:41 20° SSE 04:45:53 10° ESE visible
10 Dec 8.6 20:02:40 10° WNW 20:05:34 32° WNW 20:05:34 32° WNW visible
11 Dec 11.3 04:45:03 10° SSW 04:54:25 28° SE 05:07:03 10° E visible
11 Dec 8.5 18:11:28 10° NNW 18:17:06 29° NNE 18:21:08 10° E visible
11 Dec 9.3 20:21:30 10° W 20:23:53 23° WSW 20:23:53 23° WSW visible
12 Dec 11.2 05:02:35 10° SSW 05:12:55 37° SE 05:27:28 10° E visible
12 Dec 7.7 18:29:19 10° NW 18:35:38 50° NNE 18:39:57 10° ESE visible
12 Dec 10.0 20:41:05 10° WSW 20:42:16 13° WSW 20:42:16 13° WSW visible
13 Dec 11.4 03:15:57 10° S 03:20:03 13° SE 03:24:53 10° ESE visible
13 Dec 10.9 05:20:17 10° SW 05:31:18 49° SE 05:47:17 10° ENE visible
13 Dec 7.4 18:47:34 10° NW 18:53:58 89° SW 18:58:19 10° SE visible
14 Dec 11.1 03:32:20 10° S 03:38:44 19° SE 03:47:09 10° ESE visible
14 Dec 8.4 19:06:13 10° WNW 19:12:08 48° SW 19:16:18 10° SE visible
15 Dec 11.0 03:49:26 10° SSW 03:57:11 27° SE 04:08:11 10° E visible
15 Dec 9.5 19:25:23 10° W 19:30:12 26° SW 19:33:52 10° SSE visible
16 Dec 10.7 04:06:53 10° SSW 04:15:27 37° SE 04:28:27 10° E visible
16 Dec 10.0 19:45:28 10° WSW 19:48:16 14° SW 19:50:42 10° S visible
17 Dec 11.2 02:21:53 10° SSE 02:23:45 11° SE 02:25:44 10° SE visible
17 Dec 10.3 04:24:33 10° SW 04:33:39 51° SE 04:48:06 10° ENE visible
